Temp
18 18 18 18 18 18 17 17 17 17 17 17 16 16 16 16 16 15 15 15 15 15 14 14 14 14 14 14 14 14 14 14 14 14 14 13 13 13 13 13 13 12 12 12 12 12 12 12 11 11 11 11 11 11 11 11 10 10 10 10 10 10 10 10 10 10 10 9 9
19 18 18 18 18 18 18 17 17 17 17 17 16 16 16 16 16 16 15 15 15 15 14 14 14 14 14 14 14 14 14 14 14 14 13 13 13 13 13 13 12 12 12 12 12 12 12 11 11 11 11 11 11 11 11 10 10 10 10 10 10 10 10 10 9 9 9 9 9
19 18 18 18 18 18 18 17 17 17 17 17 17 17 16 16 16 16 15 15 15 15 14 14 14 14 14 14 14 14 14 14 14 13 13 13 13 13 13 12 12 12 12 12 12 12 12 11 11 11 11 11 11 11 10 10 10 10 10 10 10 10 10 9 9 9 9 9 9
19 19 18 18 18 18 18 17 17 17 17 17 17 17 16 16 16 16 16 15 15 15 14 14 14 14 14 14 14 14 14 14 13 13 13 13 13 13 12 12 12 12 12 12 12 12 11 11 11 11 11 11 11 11 10 10 10 10 10 10 10 10 9 9 9 9 9 9 9
19 19 18 18 18 18 18 18 17 17 17 17 17 17 16 16 16 16 16 15 15 15 15 15 14 14 14 14 14 14 13 13 13 13 13 13 13 13 12 12 12 12 12 12 12 12 11 11 11 11 11 11 11 10 10 10 10 10 10 10 10 9 9 9 9 9 9 9 9
19 19 18 18 18 18 18 18 17 17 17 17 17 17 16 16 16 16 15 15 15 15 15 15 14 14 14 14 14 13 13 13 13 13 13 13 13 12 12 12 12 12 12 12 12 11 11 11 11 11 11 11 10 10 10 10 10 10 10 10 9 9 9 9 9 9 9 9 9
19 19 19 18 18 18 18 18 17 17 17 17 17 17 16 16 16 16 16 15 15 14 14 15 14 14 14 14 14 13 13 13 13 13 13 13 13 12 12 12 12 12 12 12 11 11 11 11 11 11 11 11 10 10 10 10 10 10 10 10 9 9 9 9 9 9 9 9 9
20 19 19 18 18 18 18 18 17 17 17 17 17 17 16 16 16 16 16 15 15 14 14 14 14 14 14 14 14 13 13 13 13 13 13 13 12 12 12 12 12 12 12 12 11 11 11 11 11 11 11 10 10 10 10 10 10 10 10 10 9 9 9 9 8 8 9 9 9
20 19 19 18 18 18 18 18 17 17 17 17 17 17 17 16 16 16 15 15 15 14 14 14 14 14 14 14 14 13 13 13 13 13 13 12 12 12 12 12 12 12 12 12 11 11 11 11 11 11 11 10 10 10 10 10 10 10 10 10 9 9 8 8 8 8 9 9 8
20 19 19 18 18 18 18 18 17 17 17 17 17 17 17 16 16 16 16 15 15 14 14 14 14 14 14 14 14 13 13 13 13 12 12 12 12 12 12 12 12 12 12 11 11 11 11 11 11 11 11 10 10 10 10 10 10 10 9 9 8 8 7 8 8 8 9 8 8
20 20 19 18 18 18 18 18 17 17 17 17 17 17 17 17 16 16 16 15 15 14 14 14 14 14 14 14 13 13 13 13 13 12 12 12 12 12 12 12 12 12 11 11 11 11 11 11 11 10 10 10 10 10 10 10 10 9 9 8 8 7 7 8 8 8 8 8 8
20 20 19 18 18 18 17 17 17 17 17 17 17 17 17 16 16 16 16 15 15 14 14 14 14 14 14 13 13 13 13 13 12 12 12 12 12 12 12 12 12 11 11 11 11 11 11 10 10 10 10 10 10 10 10 10 9 9 9 8 7 7 8 8 8 8 8 8 8
21 20 19 18 18 18 17 17 17 17 16 16 16 16 16 16 16 16 15 15 15 15 14 14 14 14 14 13 13 13 13 12 12 12 12 12 12 12 12 12 12 11 11 11 11 10 10 10 10 10 10 10 10 10 10 9 9 9 8 7 7 8 8 8 9 8 8 8 8
21 20 19 18 18 17 17 17 17 17 16 16 16 16 16 16 16 16 15 15 15 14 14 14 14 13 13 13 13 13 13 12 12 12 12 12 12 12 12 12 11 11 11 11 11 10 10 10 10 10 10 10 10 10 9 9 9 8 8 7 8 8 8 8 9 8 8 8 8
21 20 19 18 18 17 17 17 17 16 16 16 16 16 16 16 16 15 15 15 15 14 14 13 13 13 13 13 13 12 12 12 12 12 12 12 11 11 11 11 11 11 11 11 10 10 10 10 10 10 10 10 10 10 9 9 9 8 8 8 8 8 8 9 9 8 8 8 8
21 20 19 18 18 17 17 17 17 16 16 16 16 16 16 16 15 15 15 15 14 14 14 13 13 13 13 13 13 12 12 12 12 12 12 11 11 11 11 11 11 11 11 10 10 10 10 10 10 10 10 10 10 9 9 9 8 8 8 8 8 8 8 8 8 8 8 8 8
21 20 19 18 18 17 17 17 17 16 16 16 15 16 16 15 15 15 15 14 14 14 13 13 13 13 12 12 12 12 12 12 12 12 11 11 11 11 11 11 11 11 11 10 10 10 10 10 10 10 10 10 9 9 9 9 8 8 8 8 8 8 8 8 8 8 8 8 8
21 20 19 18 18 17 17 17 17 16 16 16 15 15 15 15 15 15 14 14 14 14 13 13 13 12 12 12 12 12 12 12 12 12 11 11 11 11 11 11 11 11 11 10 10 10 10 10 10 10 10 9 9 9 9 9 8 8 8 8 8 8 7 8 8 8 8 8 8
21 20 19 18 18 17 17 17 17 16 16 16 15 15 15 15 15 15 14 14 14 14 13 13 12 12 12 12 12 12 12 12 12 11 11 11 11 11 11 11 11 11 10 10 10 10 10 10 10 9 9 9 9 9 9 9 8 8 8 8 7 7 7 8 8 8 8 8 8
21 20 19 19 18 18 17 17 17 16 16 16 15 15 15 15 15 15 14 14 14 13 13 13 12 12 12 12 12 12 12 12 12 11 11 11 11 11 11 11 11 11 10 10 10 10 10 10 9 9 9 9 9 9 9 8 8 8 8 7 7 7 7 8 8 8 8 8 8
21 20 20 19 18 18 17 17 17 16 16 16 15 15 15 15 14 14 14 14 13 13 13 13 12 12 12 12 12 12 12 12 12 11 11 11 11 11 11 11 11 10 10 10 10 10 9 9 9 9 9 9 9 9 8 8 8 8 8 7 7 7 7 8 8 8 8 8 8
21 21 20 19 18 18 17 17 17 16 16 16 15 15 15 14 14 14 14 14 13 13 13 13 12 12 12 12 12 12 12 12 12 12 12 11 11 11 11 11 11 10 10 10 10 9 9 9 8 8 9 9 9 8 8 8 8 7 7 7 7 8 8 8 8 8 8 8 8
22 21 20 19 19 18 17 17 17 16 16 16 15 15 15 14 14 14 14 13 13 13 13 13 12 12 12 12 12 12 12 12 12 12 12 12 11 11 11 11 11 10 10 10 9 9 8 8 8 8 9 9 8 8 7 7 7 7 7 7 8 8 8 8 8 8 8 8 8
21 20 20 19 19 18 17 17 17 16 16 16 15 15 15 14 14 14 14 13 13 13 13 13 12 12 12 12 12 12 12 12 12 12 12 12 12 11 11 11 11 10 10 10 9 9 8 8 8 8 8 8 7 7 7 7 7 7 7 8 8 8 8 8 8 8 8 8 8
20 20 20 19 19 18 17 17 17 17 16 16 15 15 15 14 14 14 14 13 13 13 12 12 12 12 12 12 12 12 12 12 12 12 12 12 12 11 11 11 10 10 10 10 9 9 9 8 8 8 8 7 7 7 7 7 7 7 7 8 8 8 9 9 8 8 8 8 8
20 20 19 19 19 18 18 17 17 17 16 16 16 15 15 14 14 14 14 13 13 13 12 12 12 12 12 12 12 12 12 12 12 12 12 12 11 11 11 10 10 10 9 9 9 9 9 8 8 8 8 7 7 7 7 7 7 7 7 8 8 8 9 9 8 8 8 8 8
20 19 19 18 18 18 18 18 17 17 17 16 16 15 15 14 14 14 14 13 13 13 12 12 12 12 12 12 12 12 12 12 12 12 12 11 11 11 10 10 10 9 9 9 9 8 8 8 8 8 8 7 7 7 7 7 7 7 7 8 8 8 9 9 8 8 8 8 8
20 19 18 17 17 18 18 18 18 17 17 16 16 15 15 15 14 14 14 13 13 13 12 12 12 12 12 12 12 12 12 12 12 12 11 11 11 10 10 10 9 9 9 8 8 8 8 8 8 8 8 7 7 7 7 7 7 7 8 8 8 8 9 9 8 8 8 8 8
20 19 18 17 17 17 18 18 18 17 17 16 16 16 15 15 14 14 14 13 13 13 12 12 12 12 12 12 12 12 12 12 12 11 11 11 11 10 10 9 9 9 8 8 8 8 8 8 8 8 8 7 7 7 7 7 7 8 8 8 8 8 8 8 8 8 8 8 8
19 18 17 16 16 16 16 17 17 17 17 17 16 16 15 15 14 14 14 13 13 13 12 12 12 12 12 12 12 12 12 12 11 11 11 11 10 10 9 9 9 8 8 8 8 8 8 8 8 8 7 8 8 7 7 7 8 8 8 8 8 8 8 8 8 8 8 8 8
19 18 17 16 16 16 15 16 17 17 17 17 16 16 15 15 15 14 14 13 13 13 12 12 12 12 12 12 12 12 11 11 11 11 10 10 10 10 9 9 8 8 8 8 8 8 8 8 7 7 7 8 8 8 8 8 8 8 8 8 8 8 8 8 8 8 8 8 8
19 18 18 17 17 16 16 16 17 17 17 17 16 16 15 15 15 14 14 13 13 12 12 12 12 12 12 12 11 11 11 11 11 10 10 10 10 9 9 8 8 8 8 8 8 8 8 7 7 7 8 8 8 8 8 8 8 8 8 8 8 8 8 8 8 8 8 8 8
19 19 18 18 17 16 16 16 16 17 17 16 16 15 15 15 14 14 14 13 13 12 12 12 12 12 11 11 11 11 11 11 11 10 10 10 9 9 8 8 8 8 8 8 8 8 8 7 7 7 8 8 8 8 8 8 8 8 8 8 8 8 8 8 8 8 8 8 7
19 18 18 18 17 16 15 15 15 16 16 16 15 15 15 15 14 14 13 13 13 12 12 12 12 11 11 11 11 11 11 10 10 10 10 9 9 9 8 8 8 8 8 8 8 8 7 7 7 8 8 8 8 8 8 8 8 8 8 8 8 8 8 8 8 8 8 7 7
18 18 17 17 17 16 15 15 15 15 15 15 15 15 15 14 14 14 13 13 12 12 12 12 11 11 11 11 11 11 10 10 10 10 9 9 9 9 8 8 8 8 8 8 8 8 8 7 8 8 8 8 9 9 8 8 8 8 8 8 8 8 8 8 8 8 7 7 7
18 17 17 17 16 15 15 14 14 14 14 14 14 15 14 14 14 14 13 13 12 12 12 11 11 11 11 11 10 10 10 10 10 9 9 9 9 8 8 8 8 8 8 8 8 8 8 8 8 8 8 9 9 9 8 8 8 8 8 8 8 8 8 8 8 8 7 7 7
18 17 17 16 16 15 15 14 14 14 14 15 15 15 14 14 14 13 13 13 12 12 12 11 11 11 11 10 10 10 10 10 10 9 9 9 9 8 8 8 8 8 8 8 8 8 8 8 8 8 8 9 8 8 8 8 8 8 8 8 8 8 8 8 8 8 7 7 7
18 18 17 17 17 16 16 16 16 16 16 16 16 15 14 14 14 13 13 13 12 12 11 11 11 11 10 10 10 10 10 10 10 9 9 9 9 8 8 8 8 8 8 8 8 8 8 8 8 9 9 9 8 8 8 8 8 8 8 8 8 8 8 8 8 7 7 7 7
19 19 19 19 19 18 18 18 18 18 17 16 15 15 14 14 14 13 13 13 12 12 12 11 11 11 10 10 10 10 10 9 9 9 9 9 9 9 8 8 8 8 8 8 8 8 8 9 9 9 9 9 9 8 8 8 8 8 8 8 8 7 7 7 7 7 7 6 6
20 20 20 20 20 19 19 18 18 17 17 16 15 15 14 14 14 13 13 13 12 12 12 11 11 11 10 10 10 10 9 9 9 9 9 9 9 9 9 8 8 8 8 8 8 9 9 9 9 9 9 9 9 9 8 8 8 8 7 7 7 7 7 7 7 6 6 6 6
19 18 18 18 18 17 17 17 16 16 16 15 15 15 14 14 14 13 13 13 12 12 12 11 11 11 10 10 10 10 10 9 9 9 9 9 9 9 9 9 9 9 9 9 9 9 9 9 9 9 9 9 9 9 8 8 7 7 7 7 7 7 6 6 6 6 6 5 5
Height
788 789 790 792 793 793 794 795 796 797 798 799 801 802 803 804 805 806 807 808 809 810 811 812 813 815 817 818 819 820 821 822 823 824 824 825 826 828 829 831 832 834 835 836 837 838 839 839 840 841 841 842 843 844 844 844 845 845 846 847 847 847 848 848 848 848 848 848 849
786 787 788 789 790 791 793 793 795 795 796 797 798 799 800 802 803 804 805 806 807 808 809 811 812 814 815 816 818 819 819 820 822 823 824 825 826 827 828 829 831 832 833 834 835 836 837 838 839 839 840 841 842 842 843 843 844 844 845 846 847 847 847 848 848 848 848 848 848
784 785 786 787 788 789 790 791 792 793 794 795 796 798 798 799 801 802 803 804 805 806 808 809 810 812 813 814 815 817 818 819 820 822 823 824 825 826 827 828 830 831 832 833 834 835 836 837 838 838 839 839 840 841 842 842 843 844 844 845 846 847 847 848 848 848 848 848 848
782 783 784 785 786 786 787 788 789 790 792 793 794 796 797 798 799 800 801 802 804 805 806 807 808 809 811 812 813 815 816 818 819 820 822 823 824 825 826 827 828 830 831 832 833 834 835 836 837 837 838 839 839 840 840 841 842 843 844 844 846 846 847 848 848 848 848 848 847
780 781 781 782 783 783 784 785 787 788 789 791 793 794 795 796 797 798 799 801 802 802 803 804 806 808 809 810 812 813 814 816 817 819 820 821 822 823 824 825 827 828 829 831 832 833 834 835 836 837 837 838 838 839 839 840 841 842 843 844 845 846 846 847 847 848 847 847 847
777 778 779 780 781 782 783 783 784 786 787 789 790 792 793 794 795 796 797 798 798 799 800 802 804 805 807 808 810 811 812 814 815 816 817 819 820 821 822 824 825 827 828 829 830 831 832 834 835 836 836 837 838 838 839 839 840 841 842 843 844 844 845 846 847 847 847 847 846
774 776 777 778 779 780 781 782 783 784 786 787 788 789 790 791 792 793 794 795 796 797 799 801 802 803 805 806 808 809 810 811 812 813 814 816 817 819 820 822 824 825 826 828 829 830 831 833 834 835 836 836 837 838 838 839 839 840 841 841 842 843 844 845 846 846 846 846 846
772 773 774 775 777 778 779 780 782 783 784 785 786 786 787 788 790 791 792 793 795 796 797 798 800 801 802 803 805 806 808 809 810 811 812 813 815 816 818 820 822 823 824 825 827 828 829 830 832 833 834 835 836 836 837 837 838 838 839 840 841 842 843 844 845 845 845 845 844
770 771 772 773 774 776 777 778 780 781 782 783 783 784 786 787 788 789 790 792 793 794 796 797 798 799 800 801 803 804 805 806 808 809 811 812 813 814 816 817 819 820 821 822 823 824 825 827 828 830 831 833 834 834 834 835 836 836 837 838 839 841 842 842 843 844 844 844 843
767 768 769 771 772 773 775 777 778 779 780 781 782 783 784 785 786 787 788 790 791 793 794 796 797 798 798 800 801 802 803 804 806 807 809 810 811 812 813 814 816 817 818 819 819 820 821 823 824 824 826 828 830 831 832 833 834 834 836 837 838 839 840 840 841 842 842 842 842
764 765 767 768 769 771 773 775 777 778 778 779 780 782 783 784 785 785 787 788 790 791 792 793 795 796 797 798 799 800 801 802 803 805 807 808 809 810 811 812 814 815 816 817 817 818 819 820 821 822 823 825 827 829 830 831 832 833 834 835 835 836 837 838 839 840 840 840 841
761 762 764 765 767 769 771 773 774 776 777 778 779 780 781 782 783 784 785 787 788 789 790 791 793 793 795 796 797 798 799 800 802 803 805 806 807 809 810 811 812 814 814 815 816 817 817 818 819 821 823 824 826 828 829 830 830 831 832 832 833 834 835 836 837 838 839 839 839
759 760 762 763 765 767 768 770 772 773 774 776 777 778 779 780 781 783 784 785 785 787 788 790 791 792 793 794 795 796 798 799 800 802 803 805 806 807 809 810 811 813 814 814 815 816 816 817 818 819 821 823 824 826 827 828 829 829 829 830 831 833 834 834 835 836 837 838 838
757 758 759 761 763 764 766 768 769 771 772 773 775 776 778 779 780 781 782 783 784 785 787 788 789 790 791 792 793 795 796 798 799 800 802 803 805 806 808 809 810 811 812 813 814 814 815 816 817 817 818 820 822 824 825 826 827 827 828 829 830 831 832 833 834 835 835 836 836
755 756 757 759 761 762 764 765 767 768 770 771 773 774 776 778 778 779 780 781 782 784 785 786 788 789 790 791 792 793 794 796 798 799 800 802 803 804 806 807 809 809 810 811 812 813 814 814 815 815 816 818 820 822 823 824 824 825 826 827 828 829 831 832 833 834 834 834 835
753 754 756 757 759 760 762 763 765 766 768 769 771 772 774 776 777 778 779 780 781 782 783 784 785 787 788 790 791 792 793 795 796 798 799 800 801 802 803 805 806 807 808 809 810 811 812 813 813 814 815 816 817 819 820 821 823 824 825 826 827 829 830 831 832 832 833 833 833
750 752 753 755 756 758 759 761 762 764 765 766 768 770 772 773 775 776 777 778 779 781 782 782 783 785 787 788 789 791 792 793 795 796 797 798 799 800 801 803 804 805 806 807 808 809 810 811 812 813 814 815 815 816 818 819 821 823 824 825 827 828 829 830 830 831 831 831 831
748 749 751 752 753 755 757 758 760 761 763 764 766 768 769 771 773 774 775 776 777 778 779 781 782 783 785 786 788 789 790 792 793 794 795 796 797 798 800 801 802 803 804 805 805 807 808 809 811 812 813 814 814 815 817 819 820 822 823 824 826 827 828 828 829 829 829 829 830
744 746 748 749 750 752 754 756 757 758 760 762 764 766 768 769 771 772 773 774 775 776 778 779 781 782 783 785 786 788 789 790 791 793 794 795 796 797 798 799 801 802 803 804 804 806 807 809 810 811 812 813 814 815 817 818 819 821 822 823 824 825 826 827 827 827 827 828 829
741 743 744 745 747 749 751 753 755 757 758 760 762 764 766 768 769 770 771 773 774 775 777 778 779 781 783 784 785 786 788 788 790 791 793 794 795 796 797 798 799 801 802 803 804 805 807 808 809 809 810 811 813 814 816 817 819 820 821 822 823 824 824 825 825 826 826 827 827
738 739 740 742 744 746 749 751 753 755 757 759 761 763 764 766 767 768 769 771 773 774 776 777 778 780 781 783 784 785 786 788 789 790 792 793 793 794 796 797 798 800 801 802 803 804 806 806 807 808 809 811 812 814 815 816 817 819 820 821 821 822 823 823 824 824 825 825 826
734 736 738 740 742 745 747 750 752 754 756 757 758 760 762 764 765 767 768 770 772 773 775 776 777 778 780 781 783 784 785 787 788 789 791 792 793 794 795 796 798 799 800 801 802 803 804 805 806 807 809 811 812 814 814 815 816 817 818 819 820 820 821 821 822 823 824 824 825
732 734 737 739 741 743 746 749 751 753 754 756 757 758 760 762 764 766 768 770 771 772 773 775 776 778 779 780 782 783 785 786 788 788 790 791 792 793 794 795 797 798 799 800 801 802 803 804 806 807 809 811 812 813 814 814 815 816 817 818 818 819 819 820 820 821 822 823 824
731 733 735 738 740 743 745 748 750 752 753 754 756 757 759 761 763 766 768 769 770 771 773 774 776 777 778 780 782 783 784 785 786 788 789 790 791 792 793 794 795 796 797 798 799 800 802 804 806 808 809 810 811 811 812 813 814 815 815 816 816 817 817 818 819 820 820 821 822
730 733 734 736 738 741 744 746 748 750 752 753 755 757 758 760 763 764 766 768 769 771 772 774 775 777 778 779 781 782 783 784 785 786 788 788 789 790 791 792 793 794 796 797 798 799 801 803 804 806 807 808 809 810 811 812 813 814 814 814 815 815 816 817 817 818 819 820 820
729 732 734 735 737 740 743 745 747 749 751 752 754 756 758 760 762 763 765 767 768 770 771 773 774 776 777 778 780 781 782 783 784 785 786 787 788 789 790 791 792 793 795 796 798 799 800 802 803 804 805 807 809 809 810 811 812 812 813 814 814 814 815 815 816 817 817 818 819
728 731 733 735 738 740 741 743 745 748 750 752 753 755 757 759 761 763 764 766 767 769 770 772 773 774 776 777 778 779 780 781 783 784 785 786 787 788 789 790 791 793 794 795 797 798 799 801 802 803 804 806 807 808 809 809 810 811 812 812 813 813 814 814 814 815 816 817 817
727 728 732 736 739 741 743 743 745 747 748 750 752 754 756 758 760 762 763 765 766 768 769 771 772 773 774 776 777 778 779 780 781 783 784 785 786 787 788 789 791 792 793 794 795 797 798 800 801 803 803 805 806 807 808 808 809 810 810 811 811 812 812 813 813 814 815 815 816
725 728 731 735 739 742 745 746 746 746 747 749 751 753 755 757 758 760 762 763 765 766 768 769 770 772 773 774 775 776 778 779 780 781 783 784 785 786 788 789 790 791 792 793 795 796 798 799 800 801 803 804 805 806 806 807 808 809 809 809 810 810 811 812 812 813 814 814 814
726 728 732 735 738 741 744 746 747 747 747 748 750 752 754 756 757 759 761 762 763 764 765 767 769 771 772 773 774 775 777 778 779 781 782 783 784 785 787 788 789 790 791 793 794 795 796 798 799 800 801 803 803 804 805 806 806 807 807 808 809 809 809 810 811 811 812 813 813
726 728 731 734 737 740 742 745 746 747 747 748 749 751 753 755 756 758 759 761 762 763 765 767 768 769 770 772 773 774 776 777 778 779 780 782 783 784 785 786 788 789 790 792 793 794 795 796 798 799 800 801 802 803 803 804 805 805 806 806 807 808 808 809 809 810 811 811 812
726 728 731 733 735 738 741 743 745 746 746 748 749 751 753 754 756 757 759 760 761 763 764 766 767 768 769 771 772 773 774 776 777 778 779 780 781 782 784 785 787 788 789 791 792 793 794 795 797 798 799 800 801 802 802 803 803 804 804 805 805 806 807 808 808 809 809 810 810
727 729 731 733 735 738 740 743 745 746 746 747 749 751 752 754 756 757 758 759 761 762 763 764 766 767 768 770 771 772 773 774 775 777 778 779 780 781 783 784 785 787 788 789 790 792 793 794 795 796 798 798 799 800 801 801 802 803 803 804 804 805 806 806 807 807 808 808 809
728 730 732 733 735 738 741 744 746 747 747 748 749 750 752 753 755 756 758 758 759 760 762 763 765 766 767 768 770 771 772 773 774 776 777 778 779 781 782 783 784 785 787 788 789 790 792 793 794 795 796 797 798 798 799 800 801 801 802 802 803 803 804 805 805 806 807 807 808
728 730 731 733 736 739 742 745 747 748 749 749 749 750 751 752 753 753 755 756 758 760 762 763 764 765 767 768 769 770 771 773 774 775 776 777 778 780 781 782 783 784 785 787 788 789 790 791 793 793 794 796 796 797 798 799 799 800 800 801 801 802 803 803 804 805 805 806 807
726 728 730 733 736 739 743 745 748 749 751 751 750 749 749 749 749 751 753 755 757 759 761 762 763 765 766 768 768 769 770 772 773 774 775 776 778 779 780 781 782 783 784 785 787 788 789 790 791 792 793 794 795 796 796 797 798 798 799 799 800 800 801 802 803 803 804 805 805
725 727 728 731 734 738 742 745 747 748 748 748 747 746 746 747 748 750 752 753 756 758 759 761 762 763 765 766 767 768 769 771 772 773 774 776 777 778 779 780 781 782 783 784 785 787 788 789 790 791 792 793 793 794 795 796 797 797 797 798 798 799 800 801 801 802 803 804 804
723 725 728 730 733 735 737 739 741 742 742 741 742 743 744 746 748 749 750 752 754 755 757 759 760 762 763 764 766 768 769 770 771 773 774 775 776 777 778 779 780 781 782 783 784 785 786 787 788 789 790 791 792 793 793 794 795 795 796 796 797 798 799 800 800 801 802 803 803
722 723 725 727 728 728 730 731 732 734 735 737 739 741 743 745 746 747 748 750 752 754 755 757 759 761 762 764 765 767 768 769 771 772 773 774 775 776 777 778 779 780 781 782 783 784 785 786 787 788 788 789 790 791 792 793 793 794 794 795 796 797 798 799 800 800 801 802 803
719 720 720 721 721 721 721 723 726 729 732 735 737 740 742 743 745 746 748 749 751 753 754 756 758 760 761 763 765 766 768 769 770 771 772 773 774 775 776 777 778 779 780 781 782 783 784 785 786 787 787 788 789 790 791 792 792 793 793 794 795 796 797 798 799 800 800 801 802
717 718 718 719 719 719 719 721 724 727 730 733 736 738 741 743 744 746 747 749 750 752 753 755 757 759 761 762 764 765 767 768 769 771 772 773 773 774 775 776 777 778 779 780 781 782 783 784 785 785 786 787 788 788 789 790 791 792 793 793 794 795 796 797 798 798 799 799 800
Wind_Speed
34 34 34 34 34 33 33 33 32 32 33 33 32 32 32 32 32 32 33 33 33 33 33 33 33 33 32 33 34 35 34 33 33 32 31 30 30 29 28 28 28 28 27 25 25 24 24 24 24 23 23 22 21 20 19 19 18 17 16 16 15 14 14 14 14 14 13 13 13
35 35 35 35 35 34 34 33 32 33 34 34 33 33 33 33 33 33 33 34 34 34 33 32 33 33 33 34 35 35 35 34 33 31 30 30 29 29 28 28 29 28 27 26 25 25 25 25 24 24 23 22 21 20 19 19 18 18 17 16 15 14 14 14 14 14 14 14 13
35 35 35 35 34 34 34 33 33 34 34 34 34 33 34 34 33 33 33 34 34 34 33 32 33 34 34 35 36 36 35 34 33 31 30 29 29 29 28 28 28 28 27 26 26 26 26 25 25 24 23 22 21 20 20 19 19 18 17 16 15 14 14 14 14 14 14 14 14
35 35 35 35 35 36 35 34 34 35 35 35 34 34 33 33 33 33 33 34 34 34 34 34 33 34 35 36 36 36 35 34 33 32 31 30 29 29 29 28 29 28 27 26 26 26 26 25 25 24 23 22 21 21 21 20 19 18 17 16 15 15 15 15 14 15 15 15 15
36 36 36 36 37 38 37 37 36 37 37 35 34 33 33 33 33 33 33 33 34 35 37 36 35 34 35 36 36 36 35 35 34 33 32 31 31 30 29 29 29 28 28 27 27 26 26 26 25 24 23 22 22 22 21 20 20 19 18 17 16 16 15 15 15 15 15 16 15
36 36 37 37 39 39 38 37 38 38 37 36 34 34 33 33 33 33 34 34 35 37 38 38 36 35 35 36 36 36 36 36 35 35 34 33 32 31 30 29 29 29 28 27 27 27 27 26 25 24 23 22 22 22 21 21 20 19 18 17 17 16 16 16 16 16 16 16 16
36 37 37 37 39 39 38 37 37 38 38 36 36 35 35 34 34 35 36 36 36 37 38 38 37 36 36 37 37 38 37 37 37 37 36 35 34 32 30 29 29 29 29 28 28 28 27 26 25 24 23 23 22 22 22 21 21 20 19 19 18 17 17 16 16 17 18 18 18
36 37 37 38 39 39 38 37 36 37 37 37 37 37 37 36 36 36 36 36 35 36 37 37 37 37 37 38 39 39 39 39 38 37 37 36 35 33 31 30 30 30 30 30 30 29 29 27 26 25 24 23 23 23 22 22 21 21 21 20 19 17 16 16 17 18 19 19 19
36 37 37 38 39 39 39 38 37 37 37 38 38 38 38 37 37 37 36 36 36 36 36 36 37 38 38 39 40 40 40 40 38 38 37 37 36 34 33 32 32 32 33 33 33 32 31 30 29 28 27 26 25 24 24 23 22 22 21 20 18 16 16 17 18 20 20 20 20
36 37 37 38 38 39 39 38 37 37 38 38 38 38 38 38 38 38 37 37 37 36 36 36 37 38 39 40 40 41 41 40 39 38 38 38 37 36 35 34 34 34 35 35 35 34 34 33 32 31 30 29 27 26 25 24 23 22 20 19 17 17 17 19 20 21 21 21 20
37 37 37 38 39 39 39 38 37 37 37 38 38 38 38 38 38 39 38 37 37 37 37 37 38 39 40 40 41 41 41 40 39 38 37 38 38 37 36 35 35 35 35 35 36 35 35 35 34 33 31 29 28 26 25 24 23 21 20 19 19 19 19 21 22 22 21 21 21
38 38 38 38 39 39 39 38 37 37 37 37 37 37 38 39 39 39 38 37 37 38 39 39 39 40 40 40 40 40 40 40 39 38 38 37 38 37 36 35 35 35 35 35 35 35 35 35 34 32 30 29 28 27 25 24 23 22 22 21 20 20 21 22 23 22 22 21 21
38 37 37 38 38 39 39 38 37 36 36 37 37 37 37 38 39 39 38 38 38 39 39 39 40 40 40 39 39 40 39 39 39 38 37 36 36 36 35 34 34 34 35 35 35 34 34 34 34 32 31 30 29 27 26 25 24 24 22 21 21 22 23 24 23 23 22 22 22
38 37 37 37 38 38 38 38 37 36 36 37 37 37 37 37 38 38 38 38 38 38 38 38 38 39 39 39 39 39 39 39 39 37 36 34 34 34 34 34 34 34 34 35 35 34 33 33 33 32 32 31 29 28 27 27 26 24 22 21 22 23 24 24 24 23 22 23 23
37 37 37 37 38 38 37 37 36 36 36 37 37 37 36 36 37 37 37 37 38 38 37 37 37 37 38 38 38 39 39 39 38 37 34 33 32 33 34 34 34 35 35 35 35 34 33 33 33 33 32 31 30 30 30 29 26 23 21 21 23 23 24 24 24 23 23 24 24
37 37 37 37 38 37 37 37 36 35 36 37 37 37 36 35 36 36 36 37 37 36 36 36 36 37 37 37 38 38 39 38 37 36 33 32 32 33 34 34 35 35 35 35 35 35 34 34 33 33 32 32 32 33 32 29 25 22 20 21 22 23 23 23 23 24 24 25 25
37 37 37 38 38 38 37 37 35 35 35 36 36 37 36 35 35 36 36 37 36 35 35 36 36 36 36 37 37 38 38 37 36 34 33 32 32 33 34 35 36 36 36 36 36 36 35 34 34 33 33 34 34 34 32 27 22 20 20 21 22 23 23 23 23 24 26 26 25
37 38 38 38 39 39 38 37 36 35 35 36 36 36 36 35 35 35 36 37 36 35 35 35 35 35 36 36 36 37 36 36 34 33 32 32 33 34 35 36 36 36 36 36 36 36 35 35 34 34 35 35 35 33 28 23 20 20 21 22 22 23 23 23 24 26 27 26 25
37 38 39 39 40 40 39 38 37 35 35 36 36 35 35 34 35 35 36 36 36 36 35 35 34 35 35 36 36 35 35 35 34 33 32 32 33 34 35 35 36 36 36 35 35 36 36 35 35 35 35 35 33 29 24 20 19 20 22 22 23 23 24 24 26 27 27 26 25
38 39 39 40 40 40 39 38 37 35 34 34 35 34 34 34 35 35 35 36 36 35 35 34 34 34 34 35 35 34 33 33 33 33 32 32 32 33 34 35 35 35 35 34 34 35 35 35 36 36 35 34 30 25 21 19 20 21 23 23 24 24 25 26 27 27 27 26 25
39 40 40 40 40 39 39 38 36 35 34 33 34 34 34 34 34 35 35 35 35 34 34 34 33 33 34 34 34 33 32 31 31 32 32 31 32 33 33 33 34 34 33 33 34 34 35 35 35 35 34 32 27 22 20 20 21 22 23 24 25 25 26 27 27 27 26 25 24
39 39 39 39 39 38 37 36 35 34 33 33 34 34 35 34 34 34 34 34 34 34 34 34 33 33 34 34 34 33 32 30 30 31 31 31 31 32 32 32 33 33 33 32 33 34 34 34 34 34 32 28 24 21 20 21 21 23 24 25 26 26 27 28 28 27 26 25 24
37 37 38 37 37 36 36 35 34 33 32 33 33 34 34 34 33 33 33 33 33 34 34 34 33 33 33 33 33 32 31 30 30 30 30 30 30 31 31 32 32 32 32 31 32 33 33 32 32 31 28 24 22 21 21 21 22 23 25 26 27 27 28 28 28 27 26 25 24
34 34 34 34 35 35 34 34 33 32 32 32 33 33 33 33 32 32 32 32 33 33 34 33 33 32 32 32 32 31 31 30 30 29 29 30 30 31 31 32 32 32 32 32 32 32 32 30 29 28 25 22 21 21 22 23 23 24 26 27 27 28 28 28 27 26 25 25 24
30 31 33 33 34 34 34 34 33 33 32 32 32 31 32 32 32 31 31 32 32 33 33 33 32 32 31 31 31 31 31 30 30 30 29 30 30 31 31 32 32 32 32 32 31 31 31 29 28 26 23 22 22 22 23 24 25 26 27 27 28 28 28 27 26 26 25 25 24
28 30 31 31 33 34 34 34 34 33 32 31 30 30 30 31 31 31 31 32 32 32 33 33 32 32 31 31 30 30 30 30 30 30 30 30 30 30 31 30 30 30 30 30 30 30 29 28 27 25 23 22 22 23 24 25 26 27 28 28 28 27 27 26 25 25 24 24 24
29 30 29 27 28 31 33 34 34 33 31 30 30 30 30 30 30 30 31 31 31 32 32 32 32 32 31 31 30 30 30 30 30 29 29 29 30 30 29 29 28 29 29 30 29 29 28 27 26 25 23 23 23 24 25 27 27 28 28 29 28 27 26 25 24 24 23 23 23
30 30 27 23 21 23 27 31 32 32 31 30 30 30 30 30 30 30 30 30 30 31 31 31 31 31 30 30 30 30 30 29 29 29 29 29 29 29 29 28 27 28 29 29 29 28 28 27 26 25 25 25 25 25 26 27 28 28 29 29 29 28 26 25 24 23 23 22 22
29 27 24 20 18 18 20 24 28 30 31 31 30 30 29 29 29 30 30 30 30 31 31 31 30 30 29 29 29 29 29 28 28 28 28 28 28 28 28 27 26 27 27 28 28 28 28 27 27 27 27 27 27 27 26 27 27 29 29 30 29 28 27 26 25 24 23 22 22
23 21 19 18 19 19 19 20 24 28 30 30 29 29 29 29 29 29 29 30 30 31 31 30 29 29 29 29 28 28 27 28 28 27 27 27 27 27 27 26 26 26 26 27 27 28 28 28 28 28 29 29 29 28 27 27 28 29 30 30 30 29 28 27 26 25 24 23 22
17 16 17 19 21 21 21 21 22 26 28 28 27 27 28 28 29 29 29 30 30 30 30 29 29 29 28 28 27 27 27 27 27 27 27 27 28 28 27 27 27 26 25 26 27 27 28 29 29 30 30 31 30 29 29 28 29 29 30 29 29 28 27 26 25 24 23 22 21
13 13 15 17 18 19 18 18 20 23 26 26 26 26 26 27 27 28 28 29 29 28 28 28 28 28 28 27 27 27 27 27 28 28 28 28 28 28 27 27 27 26 26 26 26 27 28 29 30 31 32 32 31 30 30 29 29 29 28 27 27 26 25 24 22 21 20 20 19
13 13 14 15 15 15 14 14 17 21 24 25 25 25 25 25 25 26 27 28 28 28 28 28 28 28 27 27 27 27 27 28 28 28 29 29 29 28 27 27 26 26 26 26 26 27 28 30 31 32 33 33 32 31 30 30 29 27 26 25 24 23 22 21 20 19 19 18 18
20 20 21 21 19 16 14 14 16 19 21 22 22 22 22 22 23 25 26 27 27 27 28 28 28 28 28 28 28 28 28 28 28 28 28 29 29 28 27 26 26 26 26 26 27 27 28 30 32 33 34 34 33 32 31 31 28 26 24 23 22 21 21 20 19 19 18 18 18
25 25 25 23 20 15 12 11 11 12 13 14 16 19 21 23 25 27 28 27 27 27 27 27 27 27 28 28 28 28 28 28 27 27 28 28 28 28 27 27 26 26 26 27 27 28 29 31 32 34 35 35 34 34 32 31 28 26 25 23 22 21 21 20 20 19 19 19 19
25 24 21 18 15 11 7 7 7 9 11 14 18 22 24 26 28 28 28 27 27 27 27 27 27 26 27 27 28 28 28 28 27 27 27 27 27 27 28 28 27 27 27 27 27 28 29 31 32 34 35 35 35 34 32 31 29 27 25 24 23 22 21 21 20 20 20 20 20
20 18 15 13 12 12 12 14 16 18 21 24 27 28 28 27 27 27 27 27 27 27 27 27 27 27 27 27 27 28 28 28 28 27 27 27 27 27 28 28 27 27 27 27 27 28 29 30 32 33 34 34 34 33 31 30 28 27 26 24 23 22 22 21 21 20 20 20 20
16 15 15 15 17 18 20 23 25 27 29 30 30 28 27 26 26 27 28 28 28 28 28 28 27 27 27 27 27 27 28 28 28 27 27 27 27 27 28 28 28 28 27 27 28 28 29 30 31 32 32 33 33 32 30 29 28 27 25 24 23 22 22 21 20 20 19 18 18
18 19 21 23 24 26 27 30 31 31 31 29 27 26 25 25 25 27 28 28 28 28 28 28 28 28 27 27 26 26 27 27 28 27 27 27 27 27 28 28 28 28 28 28 28 28 29 29 30 30 30 31 31 31 30 29 27 26 25 24 23 22 21 20 19 17 16 16 16
24 26 29 31 31 32 32 32 31 29 27 25 24 24 24 24 24 25 27 27 28 28 28 28 28 27 27 26 26 26 26 26 27 27 27 27 27 27 27 28 28 28 28 28 28 28 28 28 28 28 29 29 30 30 30 28 27 26 24 23 22 20 19 17 16 14 14 14 15
27 28 30 30 30 29 28 27 25 24 23 23 23 24 24 23 22 23 24 25 26 26 26 26 27 27 26 26 25 25 25 25 26 26 26 26 26 26 26 27 27 27 27 27 27 27 26 27 27 27 28 29 30 30 29 27 25 24 23 21 19 17 15 14 13 13 13 14 15
Wind_Direction
193 192 191 191 190 189 189 190 190 190 190 190 190 191 192 192 193 194 195 195 195 196 196 196 196 195 195 194 194 194 195 195 194 195 196 197 198 199 200 200 199 197 194 193 194 196 197 198 199 200 202 203 204 204 204 205 205 207 209 210 210 208 206 203 200 199 199 199 199
195 194 193 192 192 191 191 191 191 191 192 192 192 192 193 193 194 195 196 197 197 197 197 196 196 195 195 195 196 196 195 195 194 194 195 197 198 198 199 199 199 196 194 193 194 196 197 197 199 200 202 203 203 202 203 204 206 207 209 211 211 209 205 202 201 200 200 200 200
196 195 194 193 192 192 191 192 192 193 193 193 194 194 194 194 195 196 197 198 198 197 196 195 196 196 196 196 196 196 195 195 194 194 195 197 198 199 199 199 198 196 194 194 195 197 197 197 199 200 201 201 201 200 201 203 205 207 209 210 210 208 206 204 203 203 203 202 201
197 196 194 194 193 193 192 192 194 194 194 194 195 195 195 195 196 196 197 197 197 197 196 195 195 196 196 196 195 195 195 195 194 194 196 198 199 199 199 199 197 195 194 195 196 197 198 198 199 200 200 200 199 199 200 201 203 206 208 209 209 208 207 207 206 206 206 205 205
198 197 196 195 195 195 195 194 194 195 195 195 195 195 195 196 196 196 196 196 196 197 197 197 196 196 196 196 195 194 194 194 194 195 197 199 199 200 199 198 196 194 194 195 197 197 197 197 199 199 200 200 199 200 200 201 202 203 205 206 208 209 209 209 209 209 209 209 209
199 198 198 197 197 197 196 196 196 196 195 194 194 194 195 195 195 196 195 195 196 197 198 197 197 197 196 195 194 194 194 194 195 196 198 199 199 198 198 197 195 194 194 196 197 198 197 197 198 199 200 200 200 200 201 201 201 202 203 204 206 208 210 211 212 212 213 213 213
200 199 199 198 198 198 197 197 196 196 195 194 194 194 194 195 195 196 196 196 195 195 196 196 197 196 195 195 194 194 194 195 196 197 198 198 197 196 196 195 194 194 195 196 197 197 197 197 198 199 199 200 200 201 201 202 202 203 203 204 205 208 210 212 214 215 216 217 217
201 200 199 199 198 198 198 197 196 195 194 194 194 194 195 195 195 196 196 195 194 194 194 195 195 196 195 194 194 195 195 196 197 197 197 196 195 194 194 194 193 194 196 197 197 196 196 197 198 199 199 200 200 201 202 203 204 205 206 206 206 207 210 214 216 218 219 220 220
201 201 200 199 199 198 198 198 197 195 194 194 195 195 195 195 195 195 195 194 194 194 193 193 195 196 195 195 194 195 196 196 197 197 197 195 194 194 195 196 195 196 197 197 196 195 196 196 198 199 200 200 200 201 202 203 205 206 207 206 206 207 210 214 217 220 221 222 222
201 201 200 199 198 198 198 197 198 197 195 195 196 196 196 196 196 196 195 194 194 193 192 193 194 195 195 195 195 195 196 196 196 196 195 195 195 195 197 197 198 198 197 197 196 195 196 196 198 199 199 199 199 199 200 202 204 204 203 202 202 206 211 214 218 220 222 223 223
201 200 199 198 197 197 197 197 197 197 196 195 195 196 196 196 196 196 196 194 193 192 193 194 194 194 195 195 196 196 196 196 195 194 194 196 196 197 198 199 199 198 198 197 195 194 195 197 197 197 196 196 197 198 199 200 200 200 200 201 204 207 211 214 217 220 222 223 224
201 200 198 197 196 195 195 195 196 196 196 195 195 195 195 196 197 197 195 193 193 193 194 195 194 194 195 195 196 197 196 195 194 194 195 196 197 198 199 200 200 199 198 198 196 194 194 196 195 194 193 194 196 196 197 197 197 199 201 205 206 208 211 214 217 220 222 223 224
200 199 197 196 194 193 193 193 195 195 195 195 195 195 195 196 197 196 195 194 194 194 194 195 195 195 195 195 196 196 195 194 194 194 195 197 198 198 199 201 201 200 199 198 197 195 194 194 193 192 192 193 195 195 195 195 197 201 204 206 207 209 212 215 217 220 221 223 223
199 197 195 194 192 191 191 191 194 195 195 195 195 195 195 196 196 196 195 195 195 194 194 194 195 196 196 196 195 195 194 193 193 194 195 197 199 199 200 202 202 201 199 198 197 196 195 194 193 192 191 192 193 194 195 198 201 205 206 206 207 210 213 216 218 220 221 222 223
198 196 194 192 191 190 190 191 193 195 196 196 196 196 196 197 197 196 195 195 195 194 194 193 194 195 196 196 195 194 193 193 193 194 196 198 200 201 201 202 201 201 200 199 198 197 197 195 193 192 191 191 192 194 197 201 206 208 208 206 207 211 215 218 220 222 222 222 223
196 194 193 191 190 190 191 192 194 195 196 196 197 197 196 197 198 197 195 195 194 194 193 193 193 194 195 195 195 194 193 193 194 196 198 199 200 200 201 201 201 200 200 199 198 198 197 196 194 193 192 193 194 196 200 203 207 209 207 206 209 213 217 220 223 224 224 224 224
194 193 192 191 190 191 192 193 194 196 196 196 196 196 197 197 198 198 197 195 194 194 194 194 193 193 193 194 194 194 194 195 196 198 199 200 200 200 200 200 200 200 199 199 198 198 197 196 195 194 194 196 197 198 200 204 207 207 207 208 211 215 219 222 226 227 225 224 225
193 192 191 191 191 192 193 194 195 196 197 197 196 196 196 197 197 198 197 196 195 194 194 193 193 192 192 193 194 194 195 197 198 200 201 201 200 200 200 200 201 200 200 199 198 197 196 196 195 196 196 197 198 199 201 204 206 207 207 209 212 215 220 224 227 227 226 225 226
193 192 191 191 192 193 194 194 195 196 197 197 196 196 196 196 197 198 197 197 196 195 194 193 192 192 193 193 194 195 197 199 200 201 201 201 201 200 200 201 201 201 200 199 198 197 196 196 196 197 197 197 198 199 202 205 207 207 208 209 211 216 221 226 228 228 226 226 227
194 192 192 192 193 194 194 195 195 196 196 196 195 195 195 197 198 198 197 197 196 196 194 193 192 193 194 195 195 197 198 200 201 201 201 201 201 201 201 201 201 201 200 199 198 197 197 197 197 197 197 197 197 199 202 205 207 208 208 209 213 218 223 227 229 228 227 227 228
195 193 193 193 193 194 194 194 195 195 195 194 195 195 196 197 198 198 198 197 196 195 194 194 193 194 195 196 197 198 199 200 200 201 201 201 202 202 201 201 200 200 199 198 197 197 197 197 197 197 196 197 198 200 202 205 207 208 209 212 215 220 224 228 229 228 227 227 228
196 194 193 193 193 193 193 193 193 194 194 194 195 196 198 199 199 198 198 196 195 194 194 195 195 196 197 197 198 199 199 200 200 201 202 203 203 203 202 201 200 199 198 197 196 196 196 196 196 196 196 197 199 201 203 205 207 209 212 215 218 222 226 228 228 228 227 228 229
196 194 193 192 192 192 191 191 192 193 194 195 197 198 198 199 198 197 196 195 195 195 196 196 197 198 199 200 200 200 200 201 202 202 203 204 204 203 203 202 200 198 197 196 196 195 194 194 195 196 197 198 201 203 205 207 209 211 214 217 221 224 226 227 227 227 228 229 231
195 192 189 188 189 190 189 190 191 193 195 196 197 197 197 196 195 195 195 196 196 197 197 198 199 200 201 202 202 201 201 202 202 203 204 204 204 203 202 201 198 197 196 196 196 195 194 194 195 198 200 201 203 205 207 209 211 213 215 218 221 224 225 226 226 227 228 230 232
194 190 186 185 187 188 188 189 191 193 195 196 196 195 194 193 193 193 195 196 197 198 198 199 201 202 203 203 203 203 203 203 203 203 203 204 203 202 201 199 197 196 196 197 198 197 197 196 197 199 201 203 204 207 209 211 213 215 217 219 222 224 224 224 225 226 228 230 232
194 189 185 183 185 186 188 190 192 194 195 195 194 194 193 193 193 193 194 196 197 198 199 200 202 203 204 204 204 204 204 205 204 203 203 202 201 200 198 196 195 195 196 196 197 198 198 199 200 201 202 203 205 208 211 213 215 217 218 220 223 225 224 224 224 226 228 230 232
189 186 185 185 187 188 189 191 193 194 194 193 192 192 192 192 193 193 194 196 197 198 200 201 202 203 204 204 204 204 204 205 204 203 202 200 198 196 194 193 193 195 196 198 198 199 200 202 203 204 204 205 207 209 212 214 216 218 220 222 225 226 226 225 225 226 228 230 232
181 181 184 191 196 196 194 193 193 193 192 191 191 191 191 191 192 193 194 195 196 198 199 201 202 202 203 203 204 204 204 204 203 201 199 197 195 193 192 192 193 196 198 199 200 202 204 205 206 207 208 209 210 212 215 217 218 220 221 224 226 227 227 227 227 228 229 230 231
181 183 189 198 209 213 208 201 196 193 191 190 190 190 190 190 190 192 193 194 196 197 197 199 200 200 201 202 203 203 203 202 200 198 195 194 193 192 192 193 195 198 200 202 203 205 207 208 209 210 211 212 213 215 217 219 220 221 222 224 225 226 227 228 229 230 230 231 231
188 196 204 213 224 231 231 223 208 197 192 189 188 187 187 187 189 190 192 194 195 196 197 197 197 198 199 201 201 201 199 199 197 195 193 191 191 192 193 195 198 201 204 206 207 209 210 211 211 212 214 214 215 217 219 221 222 223 223 224 225 226 227 228 229 229 230 231 233
204 217 224 227 229 232 235 232 217 201 190 186 183 183 183 185 187 189 192 194 195 196 196 196 196 197 198 198 198 197 196 195 194 193 192 192 192 194 196 199 203 206 207 209 211 212 212 212 213 214 215 216 218 220 222 224 224 224 223 224 224 225 226 226 227 228 229 231 234
210 214 214 213 215 217 220 218 205 191 182 178 177 177 179 182 185 189 192 194 194 193 193 193 194 195 196 196 195 194 193 193 194 194 194 195 196 197 200 202 205 208 211 213 214 214 213 214 215 216 217 218 220 222 225 226 225 224 223 222 222 222 223 223 224 225 227 230 234
171 168 166 167 172 178 182 182 177 170 165 164 166 169 173 177 183 188 192 194 193 192 191 191 192 193 193 193 193 192 192 193 194 196 198 199 200 202 204 206 208 211 213 215 216 215 215 215 216 217 218 219 221 224 226 226 224 222 220 219 218 218 219 220 222 224 227 231 235
138 134 131 131 134 140 146 149 148 147 147 151 158 164 170 177 185 191 194 194 192 191 190 191 192 193 193 193 192 192 193 194 196 199 201 203 205 206 208 210 212 214 215 217 217 217 217 217 218 218 219 220 222 224 225 225 222 219 216 215 215 216 218 220 223 226 230 234 238
127 123 120 119 121 126 134 139 141 142 146 156 166 173 180 189 194 196 195 193 190 189 190 192 193 194 194 194 194 195 195 196 198 201 203 206 207 209 211 213 215 216 216 217 218 218 218 219 219 220 220 221 222 224 224 223 221 218 216 216 216 218 221 224 227 231 235 239 243
129 126 123 122 125 135 158 187 193 196 199 200 195 193 194 198 198 197 195 192 190 190 191 192 193 194 195 195 196 197 198 199 201 203 205 207 209 210 212 214 215 216 216 217 218 219 220 220 221 222 222 223 223 225 225 224 221 219 218 219 220 222 225 228 232 236 240 244 248
144 143 143 146 154 169 187 203 212 214 213 209 204 200 198 197 196 195 193 192 191 191 192 193 193 194 195 197 198 200 202 203 204 205 207 209 210 211 213 214 215 215 215 216 218 219 221 222 223 224 224 224 225 225 225 223 221 220 221 222 223 225 228 232 236 240 245 249 254
171 177 182 183 186 189 193 199 205 209 209 206 202 198 195 194 194 194 193 193 191 191 192 193 194 195 197 199 200 202 204 206 207 208 209 210 212 213 213 214 215 215 216 216 218 220 222 224 225 226 225 225 225 225 223 222 221 221 222 224 225 228 231 235 240 244 249 255 261
189 191 190 190 192 195 198 201 205 206 205 202 198 194 193 193 193 193 194 194 193 193 193 193 195 196 198 199 200 202 205 207 209 211 211 212 214 215 215 215 216 217 217 218 219 221 223 225 226 227 226 225 225 224 222 221 221 222 224 225 227 230 233 237 242 248 254 260 266
190 191 191 192 195 197 198 198 200 200 199 196 193 191 190 190 190 191 192 192 193 194 194 194 195 196 198 198 199 201 204 208 210 213 214 215 217 218 218 218 218 219 219 220 221 222 224 225 226 227 226 226 225 223 222 221 221 223 224 226 228 230 234 239 244 250 256 261 265
188 188 190 191 192 192 190 188 189 191 192 191 189 188 187 186 186 186 187 188 190 192 193 194 194 195 196 198 199 201 204 207 211 213 215 217 218 219 219 220 220 220 221 221 222 223 224 225 226 226 226 225 224 223 221 219 219 221 223 225 227 230 234 239 244 250 254 259 263